This is the latest recevied weather packets stored in our database for station/object LU1MQF-13. If no packets are shown the sender has not sent any weather packets the latest 10 day(s).
| Time | Temp. | Humidity | Pressure | Rain* | Wind** | Luminosity | Snow |
|---|---|---|---|---|---|---|---|
| 1778239635 | 12.78° C | 25% | 938.4 hPa | - | - | - | - |
| 1778238735 | 12.78° C | 25% | 938.2 hPa | - | - | - | - |
| 1778237835 | 12.78° C | 25% | 938.6 hPa | - | - | - | - |
| 1778236935 | 12.78° C | 25% | 938.7 hPa | - | - | - | - |
| 1778236035 | 12.78° C | 25% | 938.9 hPa | - | - | - | - |
| 1778235135 | 13.89° C | 25% | 938.6 hPa | - | - | - | - |
| 1778234235 | 13.89° C | 26% | 938.4 hPa | - | - | - | - |
| 1778233335 | 13.89° C | 26% | 938.2 hPa | - | - | - | - |
| 1778232435 | 13.89° C | 26% | 938.3 hPa | - | - | - | - |
| 1778231535 | 13.89° C | 26% | 937.9 hPa | - | - | - | - |
| 1778230635 | 13.89° C | 27% | 937.9 hPa | - | - | - | - |
| 1778229735 | 13.89° C | 29% | 938 hPa | - | - | - | - |
| 1778228834 | 15° C | 35% | 938 hPa | - | - | - | - |
| 1778227935 | 13.89° C | 25% | 937.9 hPa | - | - | - | - |
| 1778227035 | 13.89° C | 25% | 938.1 hPa | - | - | - | - |
| 1778226135 | 15° C | 25% | 938.1 hPa | - | - | - | - |
| 1778225235 | 13.89° C | 25% | 938 hPa | - | - | - | - |
| 1778224335 | 13.89° C | 26% | 938.1 hPa | - | - | - | - |
| 1778223435 | 13.89° C | 25% | 938.4 hPa | - | - | - | - |
| 1778222535 | 13.89° C | 25% | 938.2 hPa | - | - | - | - |
| 1778221635 | 13.89° C | 26% | 938.3 hPa | - | - | - | - |
| 1778220734 | 13.89° C | 25% | 938.8 hPa | - | - | - | - |
| 1778219835 | 13.89° C | 26% | 938.7 hPa | - | - | - | - |
| 1778218934 | 13.89° C | 26% | 938.8 hPa | - | - | - | - |
| 1778218035 | 15° C | 25% | 938.8 hPa | - | - | - | - |
* Rain since midnight (hover to see other rain measurements)
** Current wind speed in m/s (hover to see current wind gust speed)